Track ORBCOMM FM 29 now! 10-day predictions ORBCOMM FM 29 is classified as:
1 33062U 08031C 22182.36516715 .00000229 00000-0 65311-4 0 9998 2 33062 48.4430 49.1405 0007029 79.0972 90.9201 14.73907365754264